This demonstration page uses our WeatherBlox Daily Observations layout. Learn more.

Left ArrowRight Arrow

31.84235, -102.49876

Hourly Observations for May 28, 2015

Temp ( °F °C ) Dew Point ( °F °C ) Humidity (%) Winds ( mph kmh ) Pressure ( in mb ) Visibility ( mi km ) Precip ( " mm )
12:53 am 00:53 Clear 74 23.3 63 17.2 69 69 S 16 26 29.84 1011 8 13 0.00 0.00
1:53 am 01:53 Clear 73 22.8 63 17.2 71 71 S 20 31 29.84 1011 9 14 0.00 0.00
2:53 am 02:53 Clear 73 22.8 63 17.2 71 71 S 20 31 29.83 1010 9 14 0.00 0.00
3:53 am 03:53 Clear 72 22.2 64 17.8 76 76 S 22 35 29.82 1010 8 13 0.00 0.00
4:53 am 04:53 Clear 71 21.7 64 17.8 79 79 S 15 24 29.82 1010 8 13 0.00 0.00
5:50 am 05:50 Mostly Cloudy 70 21 64 18 83 83 SE 8 13 29.88 1012 7 11 0.00 0.00
5:53 am 05:53 Mostly Cloudy 71 21.7 65 18.3 81 81 SE 8 13 29.87 1012 7 11 0.00 0.00
6:51 am 06:51 Cloudy with Haze 72 22 64 18 78 78 SE 7 11 29.88 1012 6 10 0.00 0.00
6:53 am 06:53 Cloudy with Haze 71 21.7 65 18.3 81 81 SE 6 9 29.90 1012 6 10 0.00 0.00
7:53 am 07:53 Cloudy with Haze 73 22.8 65 18.3 76 76 SSE 13 20 29.89 1012 6 10 0.00 0.00
8:53 am 08:53 Cloudy with Haze 73 22.8 65 18.3 76 76 S 16 26 29.90 1013 6 10 0.00 0.00
9:31 am 09:31 Partly Cloudy with Nearby Thunderstorms 73 22.8 64 17.8 74 74 S 16 26 29.91 1013 6 10 0.00 0.00
9:44 am 09:44 Mostly Cloudy with Thunderstorms 73 22.8 64 17.8 74 74 SSE 16 26 29.91 1013 6 10 0.00 0.00
9:53 am 09:53 Mostly Cloudy with Thunderstorms 72 22.2 65 18.3 79 79 SSE 22 35 29.89 1012 3 5 0.02 0.51
10:02 am 10:02 Mostly Cloudy with Thunderstorms 71 21.7 66 18.9 84 84 SSE 23 37 29.88 1012 3 4 0.03 0.76
10:10 am 10:10 Mostly Cloudy with Nearby Thunderstorms 71 21.7 66 18.9 84 84 SSE 20 31 29.88 1012 4 6 0.04 1.02
10:17 am 10:17 Cloudy with Light Rain 72 22.2 65 18.3 79 79 SSE 21 33 29.88 1012 5 8 0.04 1.02
10:53 am 10:53 Mostly Cloudy with Haze 75 23.9 66 18.9 74 74 SSE 24 39 29.90 1012 6 10 0.04 1.02
11:53 am 11:53 Partly Cloudy 78 25.6 66 18.9 67 67 SSE 26 43 29.91 1013 7 11 0.00 0.00
12:53 pm 12:53 Sunny 80 26.7 65 18.3 60 60 SSE 18 30 29.88 1012 7 11 0.00 0.00
1:53 pm 13:53 Sunny 85 29.4 62 16.7 46 46 SSW 18 30 29.84 1011 9 14 0.00 0.00
2:53 pm 14:53 Mostly Sunny 84 28.9 59 15 43 43 SSW 15 24 29.83 1010 9 14 0.00 0.00
3:53 pm 15:53 Mostly Sunny 81 27.2 59 15 47 47 SW 12 19 29.84 1010 9 14 0.00 0.00
4:01 pm 16:01 Mostly Cloudy with Thunderstorms 80 26.7 60 15.6 51 51 SW 13 20 29.80 1009 8 13 0.00 0.03
4:15 pm 16:15 Mostly Cloudy with Strong Thunderstorms 75 23.9 62 16.7 64 64 W 15 24 29.83 1010 2 3 0.08 2.03
4:50 pm 16:50 Cloudy with Strong Thunderstorms 70 21 57 14 64 64 SSW 25 41 29.91 1013 3 5 0.40 10.16
4:53 pm 16:53 Cloudy with Thunderstorms 68 20 58 14.4 70 70 SW 25 41 29.93 1014 3 5 0.40 10.16
5:32 pm 17:32 Cloudy with Light Rain 66 18.9 57 13.9 73 73 SSE 10 17 29.94 1014 9 14 0.03 0.76
5:53 pm 17:53 Cloudy with Nearby Thunderstorms 68 20 55 12.8 63 63 E 14 22 29.87 1012 10 16 0.03 0.76
5:56 pm 17:56 Cloudy 68 20 55 12.8 63 63 E 15 24 29.85 1011 10 16 0.00 0.03
6:24 pm 18:24 Mostly Cloudy with Nearby Thunderstorms 69 20.6 55 12.8 61 61 SE 15 24 29.80 1009 10 16 0.00 0.03
6:34 pm 18:34 Mostly Cloudy with Nearby Thunderstorms 69 20.6 55 12.8 61 61 SE 10 17 29.85 1011 3 4 0.00 0.03
6:41 pm 18:41 Mostly Cloudy with Thunderstorms 69 20.6 55 12.8 61 61 ESE 16 26 29.80 1009 10 16 0.00 0.03
6:53 pm 18:53 Mostly Cloudy with Thunderstorms 71 21.7 53 11.7 53 53 E 18 30 29.75 1008 10 16 0.00 0.03
7:09 pm 19:09 Partly Cloudy 71 21.7 51 10.6 49 49 E 24 39 29.74 1007 10 16 0.00 0.03
7:53 pm 19:53 Sunny 70 21.1 52 11.1 53 53 E 13 20 29.77 1008 10 16 0.00 0.03
8:53 pm 20:53 Clear 67 19.4 55 12.8 66 66 ESE 15 24 29.79 1009 10 16 0.00 0.00
9:24 pm 21:24 Clear 65 18.3 56 13.3 73 73 NE 15 24 29.85 1011 10 16 0.00 0.00
9:53 pm 21:53 Clear 63 17.2 57 13.9 81 81 ENE 16 26 29.82 1010 10 16 0.00 0.00
10:53 pm 22:53 Clear 62 16.7 57 13.9 84 84 NE 16 26 29.82 1010 10 16 0.00 0.00
11:53 pm 23:53 Clear 62 16.7 57 13.9 84 84 NNW 8 13 29.88 1012 10 16 0.00 0.00

Powered by AerisWeather